, AK

(GMT )
Deadhorse

Weather History for PASC - January, 2014

Change the Weather History Date:

Friday, January 3, 2014

  Actual Average Record
Temperature  
Mean Temperature -2 °F -  
Max Temperature 1 °F -5 °F 34 °F (2017)
Min Temperature -5 °F -18 °F -45 °F (1987)
Degree Days  
Heating Degree Days 67    
Moisture  
Dew Point -6 °F    
Average Humidity 83    
Maximum Humidity 87    
Minimum Humidity 78    
Precipitation  
Precipitation 0.00 in - - ()
Sea Level Pressure  
Sea Level Pressure 30.27 in    
Wind  
Wind Speed 22 mph (East)    
Max Wind Speed 28 mph    
Max Gust Speed 32 mph    
Visibility 1 miles    
Events Fog , Snow    
Averages and records for this station are not official NWS values.
T = Trace of Precipitation, MM = Missing Value Source: NWS Daily Summary

Daily Weather History Graph

Daily Weather History Graph

Search for Another Location

Airport or City:

Trip Planner

Search our weather history database for the weather conditions in past years. The results will help you decide how hot, cold, wet, or windy it might be!

Date:

Astronomy

Dec. 31, 1969 Rise Set
Actual Time Sun does not set Sun does not set
Civil Twilight 10:43 AM AKST 3:14 PM AKST
Nautical Twilight 8:58 AM AKST 4:59 PM AKST
Astronomical Twilight 7:39 AM AKST 6:18 PM AKST
Moon 11:26 AM AKST (1/3) 7:37 PM AKST (1/3)
Length of Visible Light 4h 31m
Length of Day
0h 00m
Waxing Crescent, 9% of the Moon is Illuminated
Jan 3
Waxing Crescent
Jan 7
First Quarter
Jan 15
Full
Jan 23
Last Quarter
Jan 30
New

Hourly Weather History & Observations

Time (AKST) Temp. Windchill Dew Point Humidity Pressure Visibility Wind Dir Wind Speed Gust Speed Precip Events Conditions
12:53 AM -0.9 °F -26.3 °F -5.1 °F 83% 30.19 in 0.8 mi East 27.6 mph - N/A Snow Blowing Snow
1:53 AM -2.0 °F -25.0 °F -6.0 °F 83% 30.21 in 0.8 mi East 20.7 mph - N/A Snow Blowing Snow
2:30 AM -2.2 °F -26.7 °F -7.6 °F 78% 30.20 in 2.0 mi East 24.2 mph - N/A Snow Blowing Snow
2:53 AM -2.0 °F -26.9 °F -6.0 °F 83% 30.21 in 0.8 mi East 25.3 mph - N/A Snow Blowing Snow
3:39 AM -2.2 °F -24.7 °F -5.8 °F 85% 30.21 in 1.5 mi East 19.6 mph - N/A Snow Blowing Snow
3:53 AM -2.9 °F -25.6 °F -6.0 °F 87% 30.22 in 2.0 mi East 19.6 mph - N/A Snow Blowing Snow
4:53 AM 1.0 °F -22.8 °F -2.9 °F 83% 30.20 in 0.8 mi East 25.3 mph - N/A Snow Blowing Snow
5:53 AM -2.9 °F -25.0 °F -7.1 °F 82% 30.21 in 1.8 mi East 18.4 mph - N/A Snow Blowing Snow
6:53 AM -2.9 °F -26.7 °F -6.0 °F 87% 30.20 in 0.8 mi East 21.9 mph - N/A Snow Blowing Snow
7:29 AM -0.4 °F -24.7 °F -4.0 °F 85% 30.19 in 0.2 mi East 25.3 mph - N/A Snow Blowing Snow
7:53 AM -0.9 °F -24.5 °F -5.1 °F 83% 30.20 in 0.5 mi East 23.0 mph 32.2 mph 0.00 in Snow Light Snow
8:53 AM -0.9 °F -25.9 °F -5.1 °F 83% 30.20 in 0.5 mi East 26.5 mph - 0.00 in Snow Light Snow
9:53 AM -2.0 °F -26.0 °F -6.0 °F 83% 30.22 in 0.5 mi East 23.0 mph 31.1 mph 0.00 in Snow Light Snow
10:53 AM -2.0 °F -26.4 °F -6.0 °F 83% 30.23 in 0.5 mi East 24.2 mph - 0.00 in Snow Light Snow
11:41 AM -4.0 °F -29.1 °F -7.6 °F 85% 30.22 in 0.5 mi East 24.2 mph - 0.00 in Fog , Snow Light Snow
11:53 AM -4.0 °F -28.1 °F -8.0 °F 83% 30.24 in 0.8 mi East 21.9 mph - 0.00 in Fog , Snow Blowing Snow
12:53 PM -5.1 °F -29.0 °F -8.0 °F 87% 30.26 in 0.8 mi East 20.7 mph - N/A Snow Blowing Snow
1:53 PM -5.1 °F -30.0 °F -9.0 °F 83% 30.26 in 0.5 mi East 23.0 mph - N/A Snow Blowing Snow
2:53 PM -4.0 °F -28.1 °F -7.1 °F 87% 30.27 in 0.8 mi East 21.9 mph - N/A Snow Blowing Snow
3:38 PM -4.0 °F -27.6 °F -7.6 °F 85% 30.28 in 1.0 mi East 20.7 mph - N/A Snow Blowing Snow
3:53 PM -4.0 °F -26.4 °F -8.0 °F 83% 30.29 in 1.8 mi East 18.4 mph - N/A Snow Blowing Snow
4:53 PM -4.0 °F -25.8 °F -8.0 °F 83% 30.30 in 1.5 mi East 17.3 mph - N/A Snow Blowing Snow
5:00 PM -4.0 °F -26.4 °F -7.6 °F 85% 30.29 in 2.0 mi East 18.4 mph - N/A Snow Blowing Snow
5:11 PM -2.2 °F -25.7 °F -7.6 °F 78% 30.29 in 1.5 mi East 21.9 mph - N/A Snow Blowing Snow
5:24 PM -2.2 °F -25.7 °F -5.8 °F 85% 30.29 in 0.8 mi East 21.9 mph - N/A Snow Blowing Snow
5:32 PM -2.2 °F -25.2 °F -5.8 °F 85% 30.29 in 1.0 mi East 20.7 mph - N/A Snow Blowing Snow
5:53 PM -2.0 °F -22.6 °F -6.0 °F 83% 30.30 in 1.5 mi East 16.1 mph - N/A Snow Blowing Snow
6:53 PM -0.9 °F -21.2 °F -6.0 °F 79% 30.32 in 1.5 mi East 16.1 mph - N/A Snow Blowing Snow
7:42 PM -0.4 °F -21.7 °F -5.8 °F 78% 30.32 in 2.0 mi East 18.4 mph - N/A Snow Blowing Snow
7:49 PM -0.4 °F -22.3 °F -4.0 °F 85% 30.32 in 1.5 mi East 19.6 mph - N/A Snow Blowing Snow
7:53 PM -0.0 °F -21.8 °F -4.0 °F 83% 30.33 in 1.2 mi ENE 19.6 mph - N/A Snow Blowing Snow
8:00 PM -0.4 °F -23.8 °F -4.0 °F 85% 30.32 in 0.8 mi East 23.0 mph - N/A Snow Blowing Snow
8:41 PM -0.4 °F -23.3 °F -5.8 °F 78% 30.33 in 1.2 mi East 21.9 mph - N/A Snow Blowing Snow
8:53 PM -0.9 °F -23.0 °F -5.1 °F 83% 30.34 in 1.2 mi East 19.6 mph - N/A Snow Blowing Snow
9:53 PM -0.0 °F -21.8 °F -4.0 °F 83% 30.34 in 1.8 mi East 19.6 mph - N/A Snow Blowing Snow
10:53 PM -0.0 °F -21.8 °F -4.0 °F 83% 30.36 in 1.8 mi East 19.6 mph - N/A Snow Blowing Snow
11:53 PM -0.0 °F -22.9 °F -4.0 °F 83% 30.37 in 0.8 mi East 21.9 mph - N/A Snow Blowing Snow